Weather History for False Pass, AK

Change the Weather History Date:

Wednesday, September 25, 2013

  Actual Average (PACD) Record (PACD)
Temperature  
Mean Temperature 48 °F 46 °F  
Max Temperature 45 °F 51 °F 59 °F (1951)
Min Temperature 44 °F 41 °F 29 °F (2000)
Degree Days  
Heating Degree Days 16 19  
Month to date heating degree days 408  
Since 1 July heating degree days 1252  
Cooling Degree Days 0    
Month to date cooling degree days  
Year to date cooling degree days  
Moisture  
Dew Point 43 °F    
Average Humidity 82    
Maximum Humidity 93    
Minimum Humidity 61    
Precipitation  
Precipitation 0.48 in 0.16 in 1.33 in (1980)
Month to date precipitation 3.90  
Year to date precipitation 26.64  
Snow  
Snow 0.00 in 0.00 in 0.10 in (1996)
Month to date snowfall 0.0  
Since 1 July snowfall 0.0  
Since 1 September snowfall 0.0  
Snow Depth -    
Sea Level Pressure  
Sea Level Pressure 29.61 in    
Wind  
Wind Speed 23 mph (WSW)    
Max Wind Speed 33 mph    
Max Gust Speed 53 mph    
Visibility 5 miles    
Events Rain    
T = Trace of Precipitation, MM = Missing Value Source: NWS Daily Summary

Daily Weather History Graph

Daily Weather History Graph

Search for Another Location

Airport:

Trip Planner

Search our weather history database for the weather conditions in past years. The results will help you decide how hot, cold, wet, or windy it might be!

Date:

Astronomy

Sep. 25, 2013 Rise Set
Actual Time 7:45 AM HADT 7:43 PM HADT
Civil Twilight 7:09 AM HADT 8:19 PM HADT
Nautical Twilight 6:27 AM HADT 9:01 PM HADT
Astronomical Twilight 5:42 AM HADT 9:46 PM HADT
Moon 11:08 PM HADT (9/25) 2:53 PM HADT (9/25)
Length of Visible Light 13h 09m
Length of Day
11h 57m
Waning Gibbous, 62% of the Moon is Illuminated
Sep 25
Waning Gibbous
Sep 26
Last Quarter
Oct 4
New
Oct 11
First Quarter
Oct 18
Full

Hourly Weather History & Observations

Time (HADT) Temp. Windchill Dew Point Humidity Pressure Visibility Wind Dir Wind Speed Gust Speed Precip Events Conditions
12:01 AM 48.9 °F - 45.0 °F 86% 29.38 in 5.0 mi SSE 29.9 mph 52.9 mph 0.19 in Rain Rain
12:07 AM 48.2 °F - 44.6 °F 87% 29.10 in 5.0 mi SSE 26.5 mph 52.9 mph 0.02 in Rain Rain
1:01 AM 48.9 °F - 45.0 °F 86% 29.36 in 4.0 mi SSE 33.4 mph 47.2 mph 0.17 in Rain Rain
2:01 AM 48.0 °F - 44.1 °F 86% 29.38 in 7.0 mi South 21.9 mph 31.1 mph 0.06 in Rain Light Rain
3:01 AM 48.2 °F - 44.6 °F 87% 29.10 in 10.0 mi SSE 16.1 mph 31.1 mph 0.00 in Rain Light Rain
4:01 AM 48.9 °F - 43.0 °F 80% 29.40 in 10.0 mi North - - 0.00 in   Clear
5:01 AM 50.0 °F - 43.0 °F 77% 29.42 in 10.0 mi SSE 16.1 mph 24.2 mph N/A   Overcast
6:01 AM 50.0 °F - 42.1 °F 74% 29.43 in 10.0 mi Variable 4.6 mph - 0.00 in   Overcast
7:01 AM 53.1 °F - 39.9 °F 61% 29.44 in 10.0 mi Variable 6.9 mph 24.2 mph N/A   Overcast
8:01 AM 51.1 °F - 44.1 °F 77% 29.48 in 9.0 mi SW 24.2 mph 34.5 mph 0.00 in   Overcast
8:10 AM 51.8 °F - 44.6 °F 76% 29.22 in 6.0 mi WSW 27.6 mph 41.4 mph N/A   Haze
8:25 AM 50.0 °F - 44.6 °F 82% 29.24 in 10.0 mi WSW 21.9 mph 38.0 mph 0.00 in Rain Light Rain
8:39 AM 50.0 °F - 44.6 °F 82% 29.25 in 2.0 mi WSW 21.9 mph 46.0 mph 0.01 in Rain Light Rain
8:56 AM 50.0 °F - 44.6 °F 82% 29.28 in 7.0 mi West 13.8 mph 38.0 mph 0.02 in   Overcast
9:01 AM 50.0 °F - 46.0 °F 86% 29.55 in 3.0 mi WSW 15.0 mph 38.0 mph 0.02 in Rain Light Rain
9:26 AM 50.0 °F - 44.6 °F 82% 29.30 in 2.5 mi South 12.7 mph 47.2 mph 0.00 in Rain Light Rain
9:51 AM 48.2 °F - 46.4 °F 93% 29.34 in 1.8 mi SSW 17.3 mph 41.4 mph 0.02 in Rain Light Rain
10:01 AM 48.2 °F - 44.6 °F 87% 29.34 in 3.0 mi WSW 23.0 mph 46.0 mph 0.02 in Rain Light Rain
10:39 AM 50.0 °F - 44.6 °F 82% 29.38 in 2.5 mi West 20.7 mph 34.5 mph 0.03 in Rain Light Rain
10:50 AM 50.0 °F - 44.6 °F 82% 29.39 in 6.0 mi West 18.4 mph 36.8 mph 0.03 in Rain Light Rain
11:01 AM 50.0 °F - 45.0 °F 83% 29.68 in 6.0 mi West 23.0 mph 44.9 mph 0.04 in Rain Light Rain
11:26 AM 51.8 °F - 44.6 °F 76% 29.42 in 1.8 mi West 20.7 mph 42.6 mph 0.01 in Rain Rain
11:42 AM 51.8 °F - 44.6 °F 76% 29.43 in 2.5 mi West 15.0 mph 44.9 mph 0.02 in Rain Light Rain
12:01 PM 50.0 °F - 44.6 °F 82% 29.44 in 1.8 mi West 29.9 mph 44.9 mph 0.04 in Rain Light Rain
12:10 PM 50.0 °F - 44.6 °F 82% 29.47 in 2.5 mi West 26.5 mph 43.7 mph 0.04 in Rain Light Rain
12:20 PM 50.0 °F - 44.6 °F 82% 29.46 in 1.2 mi West 25.3 mph 41.4 mph 0.06 in Rain Rain
1:01 PM 48.9 °F - 45.0 °F 86% 29.80 in 1.5 mi West 24.2 mph 39.1 mph 0.09 in Rain Light Rain
2:01 PM 48.9 °F - 45.0 °F 86% 29.85 in 1.8 mi West 25.3 mph 51.8 mph 0.05 in Rain Light Rain
2:22 PM 48.2 °F - 44.6 °F 87% 29.59 in 2.0 mi West 28.8 mph 48.3 mph 0.00 in Rain Light Rain
2:30 PM 48.2 °F - 44.6 °F 87% 29.60 in 1.8 mi West 21.9 mph 46.0 mph 0.00 in Rain Light Rain
2:44 PM 48.2 °F - 44.6 °F 87% 29.61 in 2.0 mi West 29.9 mph 48.3 mph 0.00 in Rain Light Rain
3:01 PM 48.9 °F - 44.1 °F 83% 29.90 in 2.0 mi West 23.0 mph 48.3 mph 0.00 in Rain Light Rain
3:27 PM 48.2 °F - 44.6 °F 87% 29.64 in 5.0 mi West 27.6 mph 47.2 mph 0.01 in Rain Light Rain
4:01 PM 48.0 °F - 44.1 °F 86% 29.96 in 5.0 mi WSW 31.1 mph 50.6 mph 0.01 in Rain Light Rain
5:01 PM 46.9 °F - 42.1 °F 83% 30.00 in 4.0 mi West 21.9 mph 39.1 mph 0.00 in Rain Light Rain
6:01 PM 46.9 °F - 42.1 °F 83% 30.05 in 10.0 mi West 26.5 mph 43.7 mph 0.00 in Rain Light Rain
7:01 PM 46.9 °F - 41.0 °F 80% 30.10 in 4.0 mi West 24.2 mph 38.0 mph 0.00 in Rain Light Rain
8:01 PM 46.0 °F 39.0 °F 39.9 °F 79% 30.16 in 3.0 mi SW 17.3 mph 32.2 mph 0.01 in Rain Light Rain
8:11 PM 46.4 °F 41.1 °F 39.2 °F 76% 29.89 in 2.5 mi West 11.5 mph 24.2 mph 0.00 in Rain Light Rain
8:19 PM 44.6 °F 38.8 °F 41.0 °F 87% 29.90 in 4.0 mi West 11.5 mph 19.6 mph 0.01 in Rain Light Rain
9:01 PM 45.0 °F 35.8 °F 39.9 °F 82% 30.19 in 3.0 mi West 26.5 mph 34.5 mph 0.03 in Rain Light Rain
9:35 PM 44.6 °F 35.1 °F 39.2 °F 81% 29.91 in 8.0 mi West 27.6 mph 47.2 mph 0.00 in Rain Light Rain
9:48 PM 44.6 °F 35.1 °F 37.4 °F 76% 29.91 in 10.0 mi West 27.6 mph 44.9 mph 0.00 in   Overcast
10:01 PM 44.6 °F 34.4 °F 37.4 °F 76% 29.90 in 10.0 mi West 32.2 mph 46.0 mph 0.00 in   Scattered Clouds
10:08 PM 46.4 °F 38.7 °F 37.4 °F 71% 29.91 in 10.0 mi West 20.7 mph 46.0 mph 0.00 in   Scattered Clouds
10:36 PM 44.6 °F 37.8 °F 37.4 °F 76% 29.94 in 10.0 mi WSW 15.0 mph 28.8 mph 0.00 in   Mostly Cloudy
11:01 PM 45.0 °F 36.4 °F 39.0 °F 80% 30.23 in 10.0 mi WSW 23.0 mph 35.7 mph 0.00 in   Overcast